User: anonymous   Login
Location: Alumbaugh
(37.5976°N, 83.9299°W)
Time: 16:04:39
(UTC+00:00)
Language:

Oscar 11 - Orbit

View from above orbital plane
View from above orbital plane
View from above satellite
View from above satellite

Ground track
Ground track

The orbit data is extracted from the following two-line orbital elements,

1 14781U 84021B   23343.48706247  .00001471  00000-0  17533-3 0  9994
2 14781  97.6809 313.9320 0008084 357.3573   2.7599 14.85724742141165
Epoch (UTC): 09 December 2023 11:41:22
Eccentricity: 0.0008084
inclination: 97.6809°
perigee height: 605 km
apogee height: 617 km
right ascension of ascending node: 313.9320°
argument of perigee: 357.3573°
revolutions per day: 14.85724742
mean anomaly at epoch: 2.7599°
orbit number at epoch: 14116

The dashed part of the orbit path shows where the satellite is in the earth's shadow,  

DLR